Find Starlink 3937

NORAD ID: 52542 Int'l Des: 2022-051 Owner: SPXS Country: US Constellation: starlink operational
LEOCIRCULAR

現在のビュー

3D地球を読み込み中...

About Starlink 3937

Starlink 3937 (NORAD 52542) is a starlink constellation satellite (v1.5) launched May 13, 2022 by SPXS of US. It operates in LEO, CIRCULAR orbit with a mass of 297.00 kg.

Starlink 3937について

説明を読み込み中...

次回通過

Passes for default location (London). Set your location on the main map for personalized predictions.

高度履歴

Loading altitude history...

軌道要素

1 52542U 22051K 26171.41668980 .00073954 00000-0 34084-2 0 9996
2 52542 53.1600 27.5488 0002151 78.2514 63.0674 15.19624568 5777
Epoch: Jun 20, 2026 • Age: 42 hours

現在のステータス

高度 525.2 km
速度 7.60 km/s
衛星直下点 -50.92°S, 12.29°W
打ち上げ日 May 13, 2022
運用期間 4.1 years
タイプ internet

技術仕様

分類 Payload
質量 297.00 kg
乾燥質量 275.00 kg
総質量 297.00 kg
長さ 0.20 m
直径 2.80 m
スパン 9.00 m
形状 Box + pan
製造者 SPXS
バスタイプ Starlink
フェーズステータス In Orbit
所有者/国 SPXS/US

Most Searched